Weather History for KIKK - April, 2013

Change the Weather History Date:

Sunday, April 7, 2013

  Actual Average Record
Temperature  
Mean Temperature 52 °F -  
Max Temperature 64 °F 56 °F 81 °F (1991)
Min Temperature 40 °F 34 °F 8 °F (1982)
Degree Days  
Heating Degree Days 13    
Growing Degree Days 2 (Base 50)    
Moisture  
Dew Point 40 °F    
Average Humidity 67    
Maximum Humidity 90    
Minimum Humidity 37    
Precipitation  
Precipitation 0.00 in - - ()
Sea Level Pressure  
Sea Level Pressure 29.88 in    
Wind  
Wind Speed 13 mph (WNW)    
Max Wind Speed 20 mph    
Max Gust Speed 29 mph    
Visibility 10 miles    
Events      
Averages and records for this station are not official NWS values.
T = Trace of Precipitation, MM = Missing Value Source: NWS Daily Summary

Daily Weather History Graph

Daily Weather History Graph

Search for Another Location

Airport or City:

Trip Planner

Search our weather history database for the weather conditions in past years. The results will help you decide how hot, cold, wet, or windy it might be!

Date:

Astronomy

Apr. 07, 2013 Rise Set
Actual Time 6:24 AM CDT 7:23 PM CDT
Civil Twilight 5:56 AM CDT 7:51 PM CDT
Nautical Twilight 5:23 AM CDT 8:24 PM CDT
Astronomical Twilight 4:48 AM CDT 8:59 PM CDT
Moon 4:43 AM CDT (4/7) 4:53 PM CDT (4/7)
Length of Visible Light 13h 54m
Length of Day
12h 58m
Waning Crescent, 8% of the Moon is Illuminated
Apr 7
Waning Crescent
Apr 10
New
Apr 18
First Quarter
Apr 25
Full
May 2
Last Quarter

Hourly Weather History & Observations

Time (CDT) Temp. Windchill Dew Point Humidity Pressure Visibility Wind Dir Wind Speed Gust Speed Precip Events Conditions
12:15 AM 54.1 °F - 46.6 °F 76% 29.69 in 10.0 mi SSW 18.4 mph 27.6 mph N/A   Mostly Cloudy
12:35 AM 54.1 °F - 45.7 °F 73% 29.69 in 10.0 mi SSW 18.4 mph 28.8 mph N/A   Mostly Cloudy
12:55 AM 53.8 °F - 45.7 °F 74% 29.69 in 10.0 mi SSW 19.6 mph - N/A   Mostly Cloudy
1:15 AM 53.1 °F - 45.5 °F 75% 29.69 in 10.0 mi SW 17.3 mph 24.2 mph N/A   Scattered Clouds
1:35 AM 52.2 °F - 45.5 °F 78% 29.70 in 10.0 mi SW 17.3 mph 23.0 mph N/A   Scattered Clouds
1:55 AM 52.2 °F - 45.7 °F 79% 29.71 in 10.0 mi WSW 16.1 mph 24.2 mph N/A   Clear
2:15 AM 51.4 °F - 45.9 °F 81% 29.72 in 10.0 mi WSW 17.3 mph 21.9 mph N/A   Clear
2:35 AM 51.1 °F - 46.4 °F 84% 29.73 in 10.0 mi West 17.3 mph 23.0 mph N/A   Mostly Cloudy
2:55 AM 50.0 °F - 45.5 °F 85% 29.74 in 10.0 mi West 18.4 mph 25.3 mph N/A   Overcast
3:15 AM 49.1 °F - 44.8 °F 85% 29.76 in 10.0 mi West 13.8 mph 23.0 mph N/A   Overcast
3:35 AM 49.1 °F - 45.0 °F 86% 29.76 in 10.0 mi WSW 11.5 mph - N/A   Overcast
3:55 AM 49.1 °F - 44.6 °F 84% 29.77 in 10.0 mi WSW 13.8 mph 20.7 mph N/A   Overcast
4:15 AM 48.7 °F - 44.6 °F 86% 29.78 in 10.0 mi WSW 12.7 mph 19.6 mph N/A   Overcast
4:35 AM 48.4 °F - 44.1 °F 85% 29.79 in 10.0 mi West 17.3 mph 24.2 mph N/A   Overcast
4:55 AM 47.5 °F - 43.2 °F 85% 29.80 in 10.0 mi West 17.3 mph 25.3 mph N/A   Overcast
5:15 AM 46.6 °F - 42.1 °F 84% 29.81 in 10.0 mi West 16.1 mph - N/A   Overcast
5:35 AM 45.5 °F 38.9 °F 41.0 °F 84% 29.82 in 10.0 mi West 15.0 mph - N/A   Mostly Cloudy
5:55 AM 45.5 °F 39.6 °F 41.9 °F 87% 29.84 in 10.0 mi West 12.7 mph - N/A   Mostly Cloudy
6:15 AM 45.3 °F 39.7 °F 41.7 °F 87% 29.84 in 10.0 mi West 11.5 mph - N/A   Overcast
6:35 AM 45.3 °F 39.7 °F 41.0 °F 85% 29.85 in 10.0 mi West 11.5 mph 19.6 mph N/A   Overcast
6:55 AM 43.9 °F 39.3 °F 41.0 °F 90% 29.86 in 7.0 mi West 8.1 mph - N/A   Scattered Clouds
7:15 AM 44.1 °F 39.0 °F 41.2 °F 90% 29.88 in 7.0 mi West 9.2 mph - N/A   Scattered Clouds
7:35 AM 44.2 °F 39.7 °F 41.4 °F 90% 29.89 in 7.0 mi West 8.1 mph - N/A   Mostly Cloudy
7:55 AM 44.8 °F 39.9 °F 41.9 °F 90% 29.90 in 5.0 mi West 9.2 mph - N/A   Scattered Clouds
8:15 AM 46.0 °F 39.9 °F 42.4 °F 87% 29.91 in 7.0 mi West 13.8 mph - N/A   Mostly Cloudy
8:35 AM 46.6 °F - 42.1 °F 84% 29.91 in 7.0 mi WNW 9.2 mph - N/A   Overcast
8:55 AM 47.3 °F - 41.9 °F 82% 29.92 in 10.0 mi WNW 10.4 mph - N/A   Mostly Cloudy
9:15 AM 48.0 °F - 41.0 °F 77% 29.92 in 10.0 mi WNW 15.0 mph 19.6 mph N/A   Mostly Cloudy
9:35 AM 49.3 °F - 41.5 °F 75% 29.92 in 10.0 mi West 10.4 mph - N/A   Scattered Clouds
9:55 AM 49.6 °F - 41.2 °F 73% 29.93 in 10.0 mi WNW 11.5 mph - N/A   Clear
10:15 AM 50.9 °F - 40.6 °F 68% 29.93 in 10.0 mi West 9.2 mph 17.3 mph N/A   Clear
10:35 AM 51.8 °F - 40.6 °F 66% 29.94 in 10.0 mi West 11.5 mph 16.1 mph N/A   Clear
10:55 AM 52.7 °F - 40.6 °F 64% 29.95 in 10.0 mi West 10.4 mph 16.1 mph N/A   Clear
11:15 AM 53.6 °F - 40.6 °F 62% 29.95 in 10.0 mi West 8.1 mph 11.5 mph N/A   Clear
11:35 AM 54.3 °F - 40.1 °F 59% 29.95 in 10.0 mi WNW 9.2 mph - N/A   Clear
11:55 AM 55.8 °F - 39.9 °F 55% 29.95 in 10.0 mi West 8.1 mph - N/A   Clear
12:15 PM 56.5 °F - 39.0 °F 52% 29.95 in 10.0 mi West 9.2 mph - N/A   Clear
12:35 PM 58.3 °F - 39.4 °F 49% 29.95 in 10.0 mi West 13.8 mph 18.4 mph N/A   Clear
12:55 PM 59.0 °F - 38.3 °F 46% 29.95 in 10.0 mi WNW 12.7 mph 16.1 mph N/A   Clear
1:15 PM 58.8 °F - 38.1 °F 46% 29.95 in 10.0 mi WNW 6.9 mph - N/A   Clear
1:35 PM 59.7 °F - 39.0 °F 46% 29.94 in 10.0 mi WNW 6.9 mph - N/A   Clear
1:55 PM 60.3 °F - 38.8 °F 45% 29.95 in 10.0 mi NW 6.9 mph - N/A   Clear
2:15 PM 61.7 °F - 38.1 °F 42% 29.94 in 10.0 mi NNW 8.1 mph - N/A   Clear
2:35 PM 60.8 °F - 37.8 °F 42% 29.94 in 10.0 mi North 8.1 mph - N/A   Clear
2:55 PM 61.7 °F - 37.9 °F 41% 29.93 in 10.0 mi NNW 4.6 mph - N/A   Clear
3:15 PM 61.3 °F - 37.6 °F 41% 29.93 in 10.0 mi West 5.8 mph - N/A   Clear
3:35 PM 62.2 °F - 37.4 °F 40% 29.93 in 10.0 mi NW 3.5 mph - N/A   Clear
3:55 PM 63.1 °F - 37.6 °F 39% 29.93 in 10.0 mi West 3.5 mph - N/A   Clear
4:15 PM 63.5 °F - 37.8 °F 39% 29.93 in 10.0 mi West 9.2 mph - N/A   Clear
4:35 PM 63.0 °F - 37.0 °F 38% 29.93 in 10.0 mi NW 4.6 mph - N/A   Clear
4:55 PM 64.0 °F - 38.5 °F 39% 29.93 in 10.0 mi NW 3.5 mph - N/A   Clear
5:15 PM 64.2 °F - 38.3 °F 38% 29.93 in 10.0 mi West 3.5 mph - N/A   Clear
5:35 PM 64.2 °F - 37.6 °F 37% 29.93 in 10.0 mi WNW 3.5 mph - N/A   Clear
5:55 PM 64.0 °F - 37.2 °F 37% 29.93 in 10.0 mi Calm Calm - N/A   Clear
6:15 PM 63.5 °F - 37.4 °F 38% 29.92 in 10.0 mi Calm Calm - N/A   Clear
6:35 PM 62.2 °F - 37.9 °F 41% 29.92 in 10.0 mi NNE 4.6 mph - N/A   Clear
6:55 PM 59.9 °F - 38.3 °F 45% 29.92 in 10.0 mi NNE 5.8 mph - N/A   Clear
7:15 PM 55.6 °F - 38.5 °F 53% 29.92 in 10.0 mi NE 9.2 mph - N/A   Clear
7:35 PM 52.2 °F - 37.8 °F 58% 29.93 in 10.0 mi NNE 10.4 mph - N/A   Clear
7:55 PM 49.5 °F - 36.9 °F 62% 29.93 in 10.0 mi NNE 8.1 mph - N/A   Clear
8:15 PM 47.1 °F - 36.1 °F 66% 29.93 in 10.0 mi NNE 8.1 mph - N/A   Clear
8:35 PM 45.9 °F 40.8 °F 35.8 °F 68% 29.94 in 10.0 mi NNE 10.4 mph - N/A   Clear
8:55 PM 44.2 °F 39.7 °F 35.2 °F 71% 29.94 in 10.0 mi NNE 8.1 mph - N/A   Clear
9:15 PM 43.7 °F 39.1 °F 35.1 °F 72% 29.94 in 10.0 mi NNE 8.1 mph - N/A   Clear
9:35 PM 42.8 °F 37.5 °F 34.9 °F 74% 29.94 in 10.0 mi NE 9.2 mph - N/A   Clear
9:55 PM 41.5 °F 36.4 °F 34.7 °F 77% 29.94 in 10.0 mi NE 8.1 mph - N/A   Clear
10:15 PM 40.5 °F 37.3 °F 34.2 °F 78% 29.94 in 10.0 mi ENE 4.6 mph - N/A   Clear
10:35 PM 41.7 °F 36.7 °F 35.1 °F 77% 29.93 in 10.0 mi ENE 8.1 mph - N/A   Clear
10:55 PM 42.6 °F 37.2 °F 35.6 °F 76% 29.92 in 10.0 mi ENE 9.2 mph - N/A   Clear
11:15 PM 41.9 °F 36.9 °F 35.4 °F 78% 29.92 in 10.0 mi ENE 8.1 mph - N/A   Clear
11:35 PM 41.9 °F 36.9 °F 35.4 °F 78% 29.91 in 10.0 mi ENE 8.1 mph - N/A   Clear
11:55 PM 41.2 °F 36.0 °F 35.6 °F 81% 29.90 in 10.0 mi ENE 8.1 mph - N/A   Clear